GW3570 Weather Reports


time (UTC)temp
C
wind
direction
speed
KPH
gust
KPH
rain 1hr
cm
rain 24hr
cm
rain mn
cm
humidity
%
barometer
mb
20260510204241 20 212 0.0 1.6 0.00 0.00 0.00 42 1021.1
20260510203738 20 308 6.4 8.0 0.00 0.00 0.00 42 1021.1
20260510203236 21 102 3.2 8.0 0.00 0.00 0.00 36 1021.2
20260510202735 20 262 0.0 1.6 0.00 0.00 0.00 39 1021.3
20260510202231 20 335 4.8 4.8 0.00 0.00 0.00 38 1021.4
20260510201729 20 251 1.6 1.6 0.00 0.00 0.00 36 1021.5
20260510201225 20 292 4.8 4.8 0.00 0.00 0.00 39 1021.6
20260510200721 20 204 0.0 1.6 0.00 0.00 0.00 36 1021.7
20260510200219 20 220 1.6 3.2 0.00 0.00 0.00 36 1021.7
20260510195716 20 181 3.2 4.8 0.00 0.00 0.00 34 1021.7
20260510195213 20 341 4.8 4.8 0.00 0.00 0.00 39 1021.7
20260510194712 20 226 1.6 1.6 0.00 0.00 0.00 38 1021.9
20260510194209 20 217 1.6 3.2 0.00 0.00 0.00 33 1021.8
20260510193704 20 176 3.2 3.2 0.00 0.00 0.00 49 1021.7
20260510193159 20 199 0.0 1.6 0.00 0.00 0.00 47 1021.8
20260510192655 20 73 1.6 3.2 0.00 0.00 0.00 37 1021.8
20260510192150 19 306 4.8 8.0 0.00 0.00 0.00 40 1021.8
20260510191647 18 203 0.0 0.0 0.00 0.00 0.00 46 1021.8
20260510191144 18 245 0.0 1.6 0.00 0.00 0.00 41 1021.6
20260510190641 18 241 0.0 1.6 0.00 0.00 0.00 48 1021.7
20260510190138 18 185 4.8 4.8 0.00 0.00 0.00 55 1021.6
20260510185635 18 196 1.6 1.6 0.00 0.00 0.00 50 1021.6
20260510185133 18 174 0.0 0.0 0.00 0.00 0.00 52 1021.6
20260510184629 18 187 0.0 1.6 0.00 0.00 0.00 48 1021.6
20260510184125 18 187 0.0 0.0 0.00 0.00 0.00 43 1021.7
20260510183621 18 211 0.0 0.0 0.00 0.00 0.00 47 1021.8
20260510183116 17 196 0.0 0.0 0.00 0.00 0.00 47 1021.8
20260510182613 17 223 0.0 0.0 0.00 0.00 0.00 44 1021.5
20260510182108 18 276 0.0 1.6 0.00 0.00 0.00 47 1021.7
20260510181606 17 215 0.0 0.0 0.00 0.00 0.00 45 1021.6
20260510181102 17 278 0.0 0.0 0.00 0.00 0.00 45 1021.6
20260510180558 17 264 3.2 3.2 0.00 0.00 0.00 42 1021.8
20260510180056 17 267 1.6 1.6 0.00 0.00 0.00 44 1021.6
20260510175551 17 327 1.6 3.2 0.00 0.00 0.00 39 1021.4
20260510175047 18 316 3.2 3.2 0.00 0.00 0.00 38 1021.4
20260510174545 17 359 1.6 1.6 0.00 0.00 0.00 39 1021.4
20260510174042 18 251 3.2 3.2 0.00 0.00 0.00 39 1021.3
20260510173537 18 302 3.2 3.2 0.00 0.00 0.00 40 1021.3
20260510173035 18 343 3.2 3.2 0.00 0.00 0.00 38 1021.2
20260510172530 18 339 8.0 11.3 0.00 0.00 0.00 37 1021.5
20260510172021 19 312 3.2 4.8 0.00 0.00 0.00 38 1021.2
20260510171518 18 192 0.0 1.6 0.00 0.00 0.00 37 1021.4
20260510171015 18 340 4.8 8.0 0.00 0.00 0.00 35 1021.5
20260510170511 19 341 4.8 4.8 0.00 0.00 0.00 36 1021.3
20260510170008 19 339 4.8 8.0 0.00 0.00 0.00 36 1021.3
20260510165503 20 316 11.3 16.1 0.00 0.00 0.00 34 1021.1
20260510165000 20 353 1.6 3.2 0.00 0.00 0.00 37 1021.2
20260510164457 20 329 3.2 3.2 0.00 0.00 0.00 40 1021.1
20260510163952 20 241 1.6 3.2 0.00 0.00 0.00 38 1021.0
20260510163449 19 261 3.2 4.8 0.00 0.00 0.00 37 1021.0
20260510162943 19 6 3.2 3.2 0.00 0.00 0.00 38 1021.0
20260510162441 18 137 1.6 4.8 0.00 0.00 0.00 43 1021.0
20260510161936 18 248 3.2 3.2 0.00 0.00 0.00 36 1020.9
20260510161432 20 120 6.4 8.0 0.00 0.00 0.00 36 1021.2
20260510160930 20 270 6.4 9.7 0.00 0.00 0.00 35 1021.0
20260510160426 20 280 4.8 4.8 0.00 0.00 0.00 37 1021.1
20260510155919 20 176 0.0 0.0 0.00 0.00 0.00 42 1021.1
20260510155416 20 52 1.6 4.8 0.00 0.00 0.00 36 1021.2
20260510154913 19 347 3.2 3.2 0.00 0.00 0.00 40 1021.0
20260510154409 19 285 1.6 3.2 0.00 0.00 0.00 40 1021.0
20260510153902 18 278 1.6 3.2 0.00 0.00 0.00 40 1021.1
20260510153359 18 133 1.6 3.2 0.00 0.00 0.00 40 1021.2
20260510152856 18 335 3.2 4.8 0.00 0.00 0.00 41 1021.1
20260510152353 18 148 3.2 3.2 0.00 0.00 0.00 45 1021.1
20260510151849 18 323 6.4 8.0 0.00 0.00 0.00 43 1020.9
20260510151347 18 314 1.6 3.2 0.00 0.00 0.00 42 1021.1
20260510150843 18 208 1.6 1.6 0.00 0.00 0.00 46 1021.1
20260510150339 17 343 3.2 4.8 0.00 0.00 0.00 44 1021.2
20260510145835 17 302 4.8 8.0 0.00 0.00 0.00 43 1021.2
20260510145331 17 1 6.4 8.0 0.00 0.00 0.00 46 1021.4
20260510144828 17 342 4.8 4.8 0.00 0.00 0.00 45 1021.0
20260510144325 17 206 0.0 0.0 0.00 0.00 0.00 46 1021.3
20260510143824 17 221 1.6 1.6 0.00 0.00 0.00 48 1021.4
20260510143321 17 51 3.2 3.2 0.00 0.00 0.00 47 1021.3
20260510142818 17 278 1.6 3.2 0.00 0.00 0.00 47 1021.3
20260510142315 17 180 3.2 3.2 0.00 0.00 0.00 47 1021.0
20260510141806 17 282 1.6 3.2 0.00 0.00 0.00 49 1021.2
20260510141304 17 319 1.6 3.2 0.00 0.00 0.00 49 1021.1
20260510140801 17 114 4.8 4.8 0.00 0.00 0.00 47 1020.8
20260510140256 17 229 0.0 1.6 0.00 0.00 0.00 48 1020.8
20260510135750 17 208 0.0 1.6 0.00 0.00 0.00 50 1020.6
20260510135245 16 129 3.2 4.8 0.00 0.00 0.00 47 1020.3
20260510134743 16 277 1.6 1.6 0.00 0.00 0.00 49 1020.5
20260510134240 16 287 1.6 3.2 0.00 0.00 0.00 52 1020.1
20260510133736 16 188 1.6 1.6 0.00 0.00 0.00 53 1020.1
20260510133231 16 252 3.2 4.8 0.00 0.00 0.00 53 1020.0
20260510132728 15 282 1.6 1.6 0.00 0.00 0.00 53 1020.1
20260510132226 15 189 1.6 3.2 0.00 0.00 0.00 52 1020.0
20260510131722 15 286 1.6 3.2 0.00 0.00 0.00 55 1019.7
20260510131221 15 280 0.0 1.6 0.00 0.00 0.00 57 1019.5
20260510130716 15 339 6.4 8.0 0.00 0.00 0.00 57 1019.5
20260510130214 15 332 4.8 4.8 0.00 0.00 0.00 59 1019.2
20260510125710 15 321 4.8 4.8 0.00 0.00 0.00 59 1019.2
20260510125206 15 223 0.0 1.6 0.00 0.00 0.00 57 1019.3
20260510124704 15 225 0.0 0.0 0.00 0.00 0.00 56 1019.3
20260510124201 15 344 1.6 3.2 0.00 0.00 0.00 57 1019.3
20260510123656 14 264 3.2 3.2 0.00 0.00 0.00 56 1019.1
20260510123152 14 207 0.0 0.0 0.00 0.00 0.00 59 1018.9
20260510122649 14 183 0.0 1.6 0.00 0.00 0.00 58 1018.9
20260510122145 14 213 0.0 0.0 0.00 0.00 0.00 60 1019.0
20260510121642 14 247 3.2 3.2 0.00 0.00 0.00 59 1019.1
20260510121139 14 255 0.0 0.0 0.00 0.00 0.00 61 1018.9
20260510120636 13 337 1.6 3.2 0.00 0.00 0.00 63 1019.1
20260510120132 13 314 1.6 3.2 0.00 0.00 0.00 64 1019.0
20260510115628 13 279 1.6 1.6 0.00 0.00 0.00 64 1018.7
20260510115127 13 213 0.0 0.0 0.00 0.00 0.00 64 1018.3
20260510114622 13 211 0.0 1.6 0.00 0.00 0.00 65 1018.4
20260510114118 13 234 0.0 1.6 0.00 0.00 0.00 67 1018.3
20260510113614 13 232 1.6 1.6 0.00 0.00 0.00 62 1018.3
20260510113111 13 218 0.0 0.0 0.00 0.00 0.00 65 1018.2
20260510112608 13 254 0.0 0.0 0.00 0.00 0.00 66 1018.4
20260510112104 13 256 3.2 3.2 0.00 0.00 0.00 67 1018.2
20260510111601 14 210 0.0 0.0 0.00 0.00 0.00 68 1018.3
20260510111056 14 216 0.0 0.0 0.00 0.00 0.00 70 1018.1
20260510110553 14 210 1.6 1.6 0.00 0.00 0.00 66 1018.0
20260510110049 15 253 1.6 1.6 0.00 0.00 0.00 67 1017.8
20260510105545 15 265 1.6 1.6 0.00 0.00 0.00 68 1017.6
20260510105039 15 218 1.6 1.6 0.00 0.00 0.00 68 1017.6
20260510104536 15 211 1.6 1.6 0.00 0.00 0.00 69 1017.3
20260510104032 15 225 1.6 1.6 0.00 0.00 0.00 70 1017.5
20260510103525 15 259 4.8 4.8 0.00 0.00 0.00 70 1017.3
20260510103021 15 187 1.6 3.2 0.00 0.00 0.00 71 1017.3
20260510102516 15 226 0.0 0.0 0.00 0.00 0.00 75 1017.3
20260510102013 15 320 3.2 3.2 0.00 0.00 0.00 79 1017.4
20260510101510 15 254 0.0 0.0 0.00 0.00 0.00 81 1017.2
20260510101009 15 239 1.6 1.6 0.00 0.00 0.00 80 1017.3
20260510100505 15 277 1.6 1.6 0.00 0.00 0.00 83 1017.1
20260510100002 15 181 0.0 0.0 0.00 0.00 0.00 81 1017.1
20260510095457 15 260 3.2 4.8 0.00 0.00 0.00 82 1016.9
20260510094956 15 215 1.6 1.6 0.00 0.00 0.00 84 1016.6
20260510094451 15 359 3.2 3.2 0.00 0.00 0.00 87 1016.7
20260510093947 15 192 0.0 0.0 0.00 0.00 0.00 85 1016.2
20260510093442 14 346 1.6 3.2 0.00 0.00 0.00 87 1016.4
20260510092939 15 352 3.2 3.2 0.00 0.00 0.00 88 1016.3
20260510092436 15 153 0.0 1.6 0.00 0.00 0.00 89 1016.5
20260510091931 15 257 0.0 1.6 0.00 0.00 0.00 89 1016.2
20260510091428 15 54 0.0 0.0 0.00 0.00 0.00 88 1016.3
20260510090924 15 50 1.6 1.6 0.00 0.00 0.00 88 1016.3
20260510090421 15 6 3.2 3.2 0.00 0.00 0.00 86 1015.9
20260510085917 15 178 0.0 0.0 0.00 0.00 0.00 84 1015.5
20260510085412 15 124 0.0 0.0 0.00 0.00 0.00 87 1015.6
20260510084907 15 43 1.6 1.6 0.00 0.00 0.00 86 1015.7
20260510084405 15 154 0.0 1.6 0.00 0.00 0.00 85 1015.7
20260510083902 15 150 0.0 1.6 0.00 0.00 0.00 87 1015.7
20260510083358 15 277 1.6 1.6 0.00 0.00 0.00 86 1015.2
20260510082854 15 214 0.0 0.0 0.00 0.00 0.00 85 1015.2
20260510082351 15 283 1.6 1.6 0.00 0.00 0.00 83 1015.1
20260510081850 16 259 1.6 1.6 0.00 0.00 0.00 83 1015.1
20260510081346 16 204 0.0 0.0 0.00 0.00 0.00 79 1015.2
20260510080843 16 224 0.0 0.0 0.00 0.00 0.00 80 1015.1
20260510080337 16 219 0.0 0.0 0.00 0.00 0.00 79 1015.2
20260510075834 16 213 0.0 0.0 0.00 0.00 0.00 77 1015.1
20260510075332 16 244 0.0 0.0 0.00 0.00 0.00 78 1015.1
20260510074828 16 235 1.6 1.6 0.00 0.00 0.00 79 1014.9
20260510074326 16 210 0.0 0.0 0.00 0.00 0.00 81 1014.8
20260510073822 16 214 0.0 0.0 0.00 0.00 0.00 81 1015.0
20260510073317 16 265 0.0 1.6 0.00 0.00 0.00 79 1014.8
20260510072814 16 240 1.6 1.6 0.00 0.00 0.00 78 1014.5
20260510072311 16 211 0.0 0.0 0.00 0.00 0.00 75 1014.5
20260510071807 17 214 0.0 0.0 0.00 0.00 0.00 75 1014.5
20260510071303 17 235 0.0 1.6 0.00 0.00 0.00 75 1014.4
20260510070803 17 198 0.0 0.0 0.00 0.00 0.00 72 1014.4
20260510070258 17 192 0.0 0.0 0.00 0.00 0.00 72 1014.4
20260510065753 17 194 0.0 0.0 0.00 0.00 0.00 71 1014.4
20260510065250 17 223 0.0 0.0 0.00 0.00 0.00 73 1014.4
20260510064746 17 200 0.0 0.0 0.00 0.00 0.00 74 1014.7
20260510064244 17 220 0.0 0.0 0.00 0.00 0.00 75 1014.5
20260510063740 17 221 1.6 1.6 0.00 0.00 0.00 76 1014.7
20260510063237 16 80 3.2 3.2 0.00 0.00 0.00 78 1014.6
20260510062733 16 231 0.0 1.6 0.00 0.00 0.00 81 1014.7
20260510062229 16 224 0.0 0.0 0.00 0.00 0.00 84 1015.1
20260510061725 16 229 0.0 0.0 0.00 0.00 0.00 81 1015.0
20260510061222 16 263 1.6 3.2 0.00 0.00 0.00 83 1014.5
20260510060718 16 254 0.0 1.6 0.00 0.00 0.00 80 1014.5
20260510060215 16 223 1.6 1.6 0.00 0.00 0.00 81 1014.5
20260510055712 16 228 0.0 1.6 0.00 0.00 0.00 83 1014.5
20260510055210 16 258 1.6 1.6 0.00 0.00 0.00 84 1014.3
20260510054705 16 1 3.2 3.2 0.00 0.00 0.00 86 1014.6
20260510054201 16 229 0.0 0.0 0.00 0.00 0.00 85 1014.8
20260510053700 16 228 0.0 0.0 0.00 0.00 0.00 86 1014.8
20260510053157 16 216 0.0 0.0 0.00 0.00 0.00 87 1014.6
20260510052652 15 237 0.0 0.0 0.00 0.00 0.00 87 1014.5
20260510052149 16 245 0.0 0.0 0.00 0.00 0.00 87 1014.2
20260510051645 16 214 0.0 0.0 0.00 0.00 0.00 87 1014.2
20260510051141 16 229 0.0 0.0 0.00 0.00 0.00 86 1014.1
20260510050639 16 212 0.0 0.0 0.00 0.00 0.00 86 1014.2
20260510050136 16 227 0.0 0.0 0.00 0.00 0.00 86 1014.0
20260510045633 16 169 0.0 0.0 0.00 0.05 0.05 85 1014.0
20260510045129 16 272 1.6 1.6 0.00 0.05 0.05 85 1013.9
20260510044625 16 179 0.0 0.0 0.00 0.05 0.05 84 1013.5
20260510044123 16 185 0.0 0.0 0.00 0.05 0.05 84 1013.6
20260510043619 16 334 1.6 1.6 0.00 0.05 0.05 83 1013.6
20260510043115 16 220 0.0 0.0 0.00 0.05 0.05 83 1013.5
20260510042613 16 298 0.0 0.0 0.00 0.05 0.05 81 1013.5
20260510042108 16 278 0.0 0.0 0.00 0.05 0.05 80 1013.3
20260510041600 16 178 0.0 0.0 0.00 0.05 0.05 80 1013.1
20260510041057 16 149 0.0 0.0 0.00 0.05 0.05 80 1013.1
20260510040554 16 138 1.6 1.6 0.00 0.05 0.05 80 1012.9
20260510040050 16 105 1.6 1.6 0.00 0.05 0.05 80 1012.8
20260510035547 16 141 0.0 1.6 0.00 0.05 0.05 79 1013.1
20260510035046 17 123 1.6 1.6 0.00 0.05 0.05 79 1012.8
20260510034545 17 168 0.0 0.0 0.00 0.05 0.05 78 1012.7
20260510034041 17 185 0.0 0.0 0.00 0.05 0.05 76 1012.7
20260510033537 17 302 1.6 1.6 0.00 0.05 0.05 75 1012.7
20260510033036 17 166 0.0 0.0 0.00 0.05 0.05 73 1012.7
20260510032532 17 241 0.0 1.6 0.00 0.05 0.05 75 1012.7
20260510032027 18 217 0.0 0.0 0.00 0.05 0.05 73 1012.6
20260510031522 18 135 1.6 1.6 0.00 0.05 0.05 73 1012.7
20260510031018 19 279 0.0 0.0 0.00 0.05 0.05 71 1012.6
20260510030514 19 150 0.0 0.0 0.00 0.05 0.05 68 1012.3
20260510030011 20 120 1.6 1.6 0.00 0.05 0.05 70 1012.3
20260510025508 20 162 1.6 1.6 0.00 0.05 0.05 65 1012.0
20260510025006 20 264 1.6 1.6 0.00 0.05 0.05 69 1012.1
20260510024502 20 204 0.0 0.0 0.00 0.05 0.05 68 1012.1
20260510023958 21 246 0.0 1.6 0.00 0.05 0.05 65 1012.0
20260510023454 21 256 3.2 3.2 0.00 0.05 0.05 59 1011.7
20260510022952 21 222 3.2 4.8 0.00 0.05 0.05 61 1011.8
20260510022451 21 336 4.8 4.8 0.00 0.05 0.05 60 1011.7
20260510021950 21 338 4.8 4.8 0.00 0.05 0.05 65 1011.3
20260510021448 20 351 11.3 12.9 0.00 0.05 0.05 68 1011.1
20260510020944 18 6 0.0 0.0 0.00 0.05 0.05 81 1010.7
20260510020439 18 164 0.0 0.0 0.00 0.05 0.05 82 1010.0
20260510015935 18 146 0.0 0.0 0.00 0.05 0.05 80 1010.1
20260510015431 18 130 0.0 0.0 0.00 0.05 0.05 80 1009.9
20260510014926 19 176 0.0 0.0 0.00 0.05 0.05 80 1009.9
20260510014424 19 183 0.0 0.0 0.00 0.05 0.05 79 1009.4
20260510013920 19 151 0.0 0.0 0.00 0.05 0.05 79 1009.5
20260510013415 19 106 0.0 0.0 0.00 0.05 0.05 78 1009.5
20260510012911 20 166 0.0 0.0 0.00 0.05 0.05 77 1009.4
20260510012406 20 185 0.0 0.0 0.00 0.05 0.05 77 1009.1
20260510011901 20 118 0.0 0.0 0.00 0.05 0.05 77 1009.3
20260510011356 20 136 0.0 0.0 0.00 0.05 0.05 75 1009.3
20260510010853 21 186 0.0 0.0 0.00 0.05 0.05 75 1009.3
20260510010350 21 177 0.0 0.0 0.00 0.05 0.05 74 1009.2
20260510005846 21 156 0.0 0.0 0.00 0.05 0.05 73 1008.9
20260510005343 22 264 0.0 0.0 0.00 0.05 0.05 70 1009.1
20260510004840 22 193 0.0 0.0 0.00 0.05 0.05 68 1009.3
20260510004338 22 192 0.0 0.0 0.00 0.05 0.05 68 1009.0
20260510003836 23 213 0.0 0.0 0.00 0.05 0.05 67 1008.9
20260510003332 23 196 0.0 0.0 0.00 0.05 0.05 65 1009.1
20260510002831 23 178 0.0 0.0 0.00 0.05 0.05 66 1009.0
20260510002328 22 266 0.0 0.0 0.00 0.05 0.05 70 1009.1
20260510001825 23 260 0.0 0.0 0.00 0.05 0.05 69 1008.9
20260510001323 23 198 0.0 0.0 0.00 0.05 0.05 68 1009.0
20260510000819 23 199 0.0 0.0 0.00 0.05 0.05 68 1009.1
20260510000318 23 201 0.0 0.0 0.00 0.05 0.05 67 1008.9
20260509235813 23 75 0.0 0.0 0.00 0.05 0.05 65 1008.9
20260509235310 23 131 0.0 0.0 0.00 0.05 0.05 65 1009.1
20260509234806 23 224 0.0 0.0 0.00 0.05 0.05 66 1009.1
20260509234302 24 267 0.0 0.0 0.00 0.05 0.05 65 1009.2
20260509233801 24 241 0.0 0.0 0.00 0.05 0.05 64 1008.9
20260509233258 25 226 0.0 0.0 0.00 0.05 0.05 66 1008.9
20260509232754 25 191 0.0 0.0 0.00 0.05 0.05 57 1008.9
20260509232251 26 199 0.0 1.6 0.00 0.05 0.05 57 1008.9
20260509231747 26 200 0.0 0.0 0.00 0.05 0.05 53 1009.2
20260509231244 26 197 0.0 0.0 0.00 0.05 0.05 52 1009.0
20260509230742 26 203 0.0 0.0 0.00 0.05 0.05 51 1009.2
20260509230239 26 215 0.0 0.0 0.00 0.05 0.05 51 1009.1
20260509225734 26 214 0.0 0.0 0.00 0.05 0.05 51 1009.1
20260509225230 26 211 0.0 0.0 0.00 0.05 0.05 55 1009.1
20260509224726 26 213 0.0 0.0 0.00 0.05 0.05 50 1008.8
20260509224224 26 218 1.6 1.6 0.00 0.05 0.05 49 1008.9
20260509223720 26 244 3.2 4.8 0.00 0.05 0.05 49 1008.7
20260509223217 27 237 4.8 4.8 0.00 0.05 0.05 44 1008.8
20260509222714 27 222 1.6 1.6 0.00 0.05 0.05 45 1009.0
20260509222209 27 218 0.0 1.6 0.00 0.05 0.05 43 1008.9
20260509221705 27 239 8.0 8.0 0.00 0.05 0.05 40 1009.0
20260509221202 27 228 1.6 1.6 0.00 0.05 0.05 42 1008.8
20260509220657 27 304 6.4 8.0 0.00 0.05 0.05 40 1009.0
20260509220148 27 243 8.0 9.7 0.00 0.05 0.05 37 1009.0
20260509215644 28 255 3.2 3.2 0.00 0.05 0.05 40 1008.8
20260509215141 27 262 4.8 4.8 0.00 0.05 0.05 39 1008.9
20260509214638 27 299 9.7 11.3 0.00 0.05 0.05 35 1008.7
20260509214135 27 255 8.0 9.7 0.00 0.05 0.05 41 1008.9
20260509213631 27 267 6.4 9.7 0.00 0.05 0.05 42 1008.9
20260509213127 27 256 4.8 4.8 0.00 0.05 0.05 43 1009.1
20260509212625 27 257 6.4 8.0 0.00 0.05 0.05 42 1008.9
20260509212122 27 277 8.0 9.7 0.00 0.05 0.05 38 1008.9
20260509211617 27 246 6.4 8.0 0.00 0.05 0.05 43 1009.2
20260509211114 27 254 4.8 4.8 0.00 0.05 0.05 40 1009.2
20260509210611 27 237 4.8 4.8 0.00 0.05 0.05 42 1009.3
20260509210108 27 248 6.4 8.0 0.00 0.05 0.05 39 1009.3
20260509205602 27 252 9.7 11.3 0.00 0.05 0.05 42 1009.6
20260509205057 27 236 6.4 8.0 0.00 0.05 0.05 40 1009.5